GW5711 Weather Reports


time (UTC)temp
C
wind
direction
speed
KPH
gust
KPH
rain 1hr
cm
rain 24hr
cm
rain mn
cm
humidity
%
barometer
mb
20260510063912 10 170 0.0 0.0 0.00 0.00 0.00 79 1013.7
20260510063408 10 165 0.0 0.0 0.00 0.00 0.00 79 1013.8
20260510062907 10 160 0.0 0.0 0.00 0.00 0.00 79 1013.7
20260510062401 10 152 0.0 0.0 0.00 0.00 0.00 79 1013.7
20260510061857 10 169 0.0 0.0 0.00 0.00 0.00 79 1013.5
20260510061354 10 162 0.0 0.0 0.00 0.00 0.00 78 1013.7
20260510060849 10 115 0.0 0.0 0.00 0.00 0.00 78 1013.7
20260510060348 10 170 0.0 0.0 0.00 0.00 0.00 77 1013.5
20260510055844 11 208 0.0 0.0 0.00 0.00 0.00 75 1013.7
20260510055343 11 211 1.6 1.6 0.00 0.00 0.00 75 1013.7
20260510054842 11 208 0.0 0.0 0.00 0.00 0.00 74 1013.8
20260510054338 11 223 0.0 0.0 0.00 0.00 0.00 73 1013.5
20260510053833 11 219 1.6 1.6 0.00 0.00 0.00 74 1013.7
20260510053328 11 211 0.0 0.0 0.00 0.00 0.00 74 1013.8
20260510052825 11 215 0.0 0.0 0.00 0.00 0.00 74 1013.7
20260510052321 11 210 0.0 0.0 0.00 0.00 0.00 75 1013.5
20260510051818 11 210 0.0 0.0 0.00 0.00 0.00 75 1013.5
20260510051315 10 210 0.0 0.0 0.00 0.00 0.00 76 1013.7
20260510050812 11 210 0.0 0.0 0.00 0.00 0.00 75 1013.7
20260510050308 11 210 0.0 0.0 0.00 0.00 0.00 76 1013.7
20260510045805 11 210 0.0 0.0 0.00 0.00 0.00 76 1013.7
20260510045305 11 210 0.0 0.0 0.00 0.00 0.00 75 1013.8
20260510044759 11 213 0.0 0.0 0.00 0.00 0.00 75 1014.0
20260510044256 12 209 0.0 0.0 0.00 0.00 0.00 72 1013.8
20260510043752 12 209 0.0 0.0 0.00 0.00 0.00 72 1013.8
20260510043248 12 209 0.0 0.0 0.00 0.00 0.00 72 1013.8
20260510042746 12 209 0.0 0.0 0.00 0.00 0.00 72 1013.8
20260510042241 12 209 0.0 0.0 0.00 0.00 0.00 71 1013.8
20260510041738 13 209 0.0 0.0 0.00 0.00 0.00 70 1013.9
20260510041235 13 209 0.0 0.0 0.00 0.00 0.00 69 1014.0
20260510040733 13 209 0.0 0.0 0.00 0.00 0.00 69 1013.9
20260510040230 13 209 0.0 0.0 0.00 0.00 0.00 69 1014.0
20260510035724 13 209 0.0 0.0 0.00 0.00 0.00 69 1013.9
20260510035221 13 209 0.0 0.0 0.00 0.00 0.00 70 1014.0
20260510034716 12 211 0.0 0.0 0.00 0.00 0.00 71 1013.8
20260510034215 12 210 0.0 0.0 0.00 0.00 0.00 71 1013.9
20260510033710 12 210 0.0 0.0 0.00 0.00 0.00 72 1013.9
20260510033209 12 210 0.0 0.0 0.00 0.00 0.00 72 1014.1
20260510032705 12 210 0.0 0.0 0.00 0.00 0.00 73 1013.8
20260510032200 12 210 0.0 0.0 0.00 0.00 0.00 73 1014.0
20260510031655 12 210 0.0 0.0 0.00 0.00 0.00 74 1013.7
20260510031152 13 211 0.0 0.0 0.00 0.00 0.00 72 1013.7
20260510030652 13 211 0.0 0.0 0.00 0.00 0.00 71 1013.5
20260510030150 13 211 0.0 0.0 0.00 0.00 0.00 71 1013.5
20260510025647 13 217 0.0 0.0 0.00 0.00 0.00 70 1013.4
20260510025144 13 222 0.0 0.0 0.00 0.00 0.00 71 1013.5
20260510024641 13 207 0.0 0.0 0.00 0.00 0.00 72 1013.7
20260510024137 13 208 0.0 0.0 0.00 0.00 0.00 71 1013.4
20260510023633 14 214 0.0 0.0 0.00 0.00 0.00 69 1013.3
20260510023131 15 204 0.0 0.0 0.00 0.00 0.00 67 1013.2
20260510022631 15 203 0.0 0.0 0.00 0.00 0.00 67 1013.1
20260510022126 15 205 0.0 1.6 0.00 0.00 0.00 67 1013.1
20260510021621 15 205 0.0 1.6 0.00 0.00 0.00 68 1012.8
20260510021114 15 195 0.0 0.0 0.00 0.00 0.00 68 1012.8
20260510020608 15 196 0.0 0.0 0.00 0.00 0.00 68 1012.7
20260510020104 15 194 0.0 0.0 0.00 0.00 0.00 69 1012.6
20260510015600 15 177 0.0 0.0 0.00 0.00 0.00 69 1012.5
20260510015057 16 195 0.0 0.0 0.00 0.00 0.00 67 1012.6
20260510014552 16 210 0.0 0.0 0.00 0.00 0.00 67 1012.4
20260510014049 16 204 1.6 1.6 0.00 0.00 0.00 67 1012.2
20260510013543 15 209 0.0 0.0 0.00 0.00 0.00 68 1012.3
20260510013039 15 209 0.0 0.0 0.00 0.00 0.00 69 1012.2
20260510012534 15 209 0.0 0.0 0.00 0.00 0.00 68 1012.0
20260510012031 15 209 0.0 0.0 0.00 0.00 0.00 68 1012.0
20260510011530 15 209 0.0 0.0 0.00 0.00 0.00 67 1012.0
20260510011026 16 209 0.0 0.0 0.00 0.00 0.00 66 1011.7
20260510010523 16 209 0.0 0.0 0.00 0.00 0.00 66 1011.9
20260510010020 16 209 0.0 0.0 0.00 0.00 0.00 66 1011.7
20260510005516 16 209 0.0 0.0 0.00 0.00 0.00 66 1011.6
20260510005014 16 209 0.0 0.0 0.00 0.00 0.00 65 1011.6
20260510004511 16 209 0.0 0.0 0.00 0.00 0.00 65 1011.5
20260510004009 16 209 0.0 0.0 0.00 0.00 0.00 64 1011.5
20260510003505 16 209 0.0 0.0 0.00 0.00 0.00 64 1011.3
20260510003001 17 209 0.0 0.0 0.00 0.00 0.00 63 1011.2
20260510002457 17 209 0.0 0.0 0.00 0.00 0.00 62 1011.2
20260510001953 17 209 0.0 0.0 0.00 0.00 0.00 62 1011.2
20260510001451 18 209 0.0 0.0 0.00 0.00 0.00 60 1011.1
20260510000949 18 209 0.0 0.0 0.00 0.00 0.00 59 1010.9
20260510000444 19 210 0.0 0.0 0.00 0.00 0.00 56 1010.9
20260509235941 19 210 1.6 1.6 0.00 0.00 0.00 55 1010.8
20260509235438 19 189 0.0 0.0 0.00 0.00 0.00 56 1010.7
20260509234934 20 217 3.2 4.8 0.00 0.00 0.00 55 1010.5
20260509234431 20 182 0.0 0.0 0.00 0.00 0.00 55 1010.6
20260509233929 20 198 0.0 0.0 0.00 0.00 0.00 54 1010.6
20260509233426 20 213 0.0 1.6 0.00 0.00 0.00 53 1010.6
20260509232922 20 234 0.0 3.2 0.00 0.00 0.00 53 1010.5
20260509232420 20 173 0.0 0.0 0.00 0.00 0.00 53 1010.6
20260509231915 21 180 0.0 0.0 0.00 0.00 0.00 52 1010.8
20260509231413 21 214 1.6 1.6 0.00 0.00 0.00 52 1010.7
20260509230911 21 192 0.0 1.6 0.00 0.00 0.00 52 1010.5
20260509230407 21 241 3.2 3.2 0.00 0.00 0.00 52 1010.6
20260509225903 21 183 0.0 1.6 0.00 0.00 0.00 51 1010.4
20260509225400 21 165 0.0 1.6 0.00 0.00 0.00 50 1010.5
20260509224855 21 212 1.6 3.2 0.00 0.00 0.00 50 1010.6
20260509224351 21 187 1.6 1.6 0.00 0.00 0.00 50 1010.6
20260509223849 21 186 0.0 0.0 0.00 0.00 0.00 50 1010.4
20260509223345 21 232 3.2 4.8 0.00 0.00 0.00 50 1010.7
20260509222843 21 232 3.2 3.2 0.00 0.00 0.00 49 1010.6
20260509222337 21 237 1.6 3.2 0.00 0.00 0.00 50 1010.6
20260509221833 21 208 1.6 3.2 0.00 0.00 0.00 51 1010.5
20260509221331 21 179 1.6 1.6 0.00 0.00 0.00 51 1010.6
20260509220831 21 214 1.6 1.6 0.00 0.00 0.00 51 1010.7
20260509220327 21 243 8.0 9.7 0.00 0.00 0.00 49 1010.4
20260509215822 22 224 3.2 4.8 0.00 0.00 0.00 49 1010.4
20260509215320 21 268 4.8 9.7 0.00 0.00 0.00 49 1010.5
20260509214816 21 262 4.8 8.0 0.00 0.00 0.00 50 1010.4
20260509214313 21 203 3.2 3.2 0.00 0.00 0.00 50 1010.6
20260509213810 21 265 8.0 9.7 0.00 0.00 0.00 49 1010.4
20260509213306 21 236 4.8 4.8 0.00 0.00 0.00 50 1010.5
20260509212804 21 168 1.6 3.2 0.00 0.00 0.00 50 1010.6
20260509212301 21 193 1.6 1.6 0.00 0.00 0.00 49 1010.4
20260509211756 21 206 3.2 3.2 0.00 0.00 0.00 49 1010.5
20260509211253 21 228 4.8 8.0 0.00 0.00 0.00 49 1010.2
20260509210749 22 236 6.4 8.0 0.00 0.00 0.00 48 1010.3
20260509210248 22 238 4.8 4.8 0.00 0.00 0.00 48 1010.3
20260509205746 22 237 3.2 3.2 0.00 0.00 0.00 47 1010.2
20260509205242 23 116 1.6 3.2 0.00 0.00 0.00 46 1010.3
20260509204738 22 214 3.2 3.2 0.00 0.00 0.00 45 1010.5
20260509204234 22 183 4.8 8.0 0.00 0.00 0.00 47 1010.3
20260509203730 23 310 1.6 1.6 0.00 0.00 0.00 45 1010.1
20260509203229 22 202 4.8 8.0 0.00 0.00 0.00 47 1010.1
20260509202724 22 235 4.8 4.8 0.00 0.00 0.00 47 1010.0
20260509202220 22 150 0.0 0.0 0.00 0.00 0.00 49 1010.0
20260509201714 23 14 1.6 1.6 0.00 0.00 0.00 45 1010.1
20260509201212 23 342 4.8 4.8 0.00 0.00 0.00 47 1010.0
20260509200709 23 236 4.8 4.8 0.00 0.00 0.00 44 1010.0
20260509200209 22 191 4.8 8.0 0.00 0.00 0.00 47 1010.0
20260509195705 22 229 4.8 8.0 0.00 0.00 0.00 45 1010.2
20260509195201 22 169 1.6 3.2 0.00 0.00 0.00 46 1010.1
20260509194700 22 207 6.4 9.7 0.00 0.00 0.00 46 1010.2
20260509194157 22 219 8.0 11.3 0.00 0.00 0.00 46 1010.2
20260509193654 22 192 4.8 4.8 0.00 0.00 0.00 46 1010.4
20260509193149 23 296 4.8 4.8 0.00 0.00 0.00 46 1010.4
20260509192646 22 161 1.6 1.6 0.00 0.00 0.00 46 1010.6
20260509192141 22 284 3.2 3.2 0.00 0.00 0.00 47 1010.5
20260509191635 22 331 8.0 9.7 0.00 0.00 0.00 49 1010.6
20260509191132 22 219 4.8 4.8 0.00 0.00 0.00 46 1010.8
20260509190628 22 262 3.2 8.0 0.00 0.00 0.00 45 1010.8
20260509190126 22 259 4.8 4.8 0.00 0.00 0.00 48 1010.7
20260509185623 22 254 4.8 4.8 0.00 0.00 0.00 45 1010.6
20260509185120 22 200 8.0 11.3 0.00 0.00 0.00 45 1010.8
20260509184618 22 220 8.0 11.3 0.00 0.00 0.00 44 1010.8
20260509184114 21 226 4.8 4.8 0.00 0.00 0.00 46 1010.9
20260509183610 22 231 4.8 9.7 0.00 0.00 0.00 45 1011.1
20260509183105 22 323 3.2 3.2 0.00 0.00 0.00 45 1010.9
20260509182602 21 169 0.0 1.6 0.00 0.00 0.00 46 1011.1
20260509182059 22 263 1.6 1.6 0.00 0.00 0.00 44 1011.1
20260509181557 23 251 4.8 4.8 0.00 0.00 0.00 42 1010.9
20260509181054 23 189 1.6 3.2 0.00 0.00 0.00 45 1010.9
20260509180549 22 246 6.4 9.7 0.00 0.00 0.00 46 1011.1
20260509180047 22 161 8.0 11.3 0.00 0.00 0.00 47 1011.2
20260509175542 21 271 1.6 3.2 0.00 0.00 0.00 45 1011.3
20260509175040 22 183 4.8 8.0 0.00 0.00 0.00 45 1011.4
20260509174536 22 237 6.4 9.7 0.00 0.00 0.00 49 1011.5
20260509174031 22 248 8.0 12.9 0.00 0.00 0.00 48 1011.7
20260509173526 22 218 1.6 1.6 0.00 0.00 0.00 49 1011.6
20260509173022 21 237 4.8 4.8 0.00 0.00 0.00 49 1011.7
20260509172520 21 190 0.0 0.0 0.00 0.00 0.00 49 1011.9
20260509172015 20 244 8.0 11.3 0.00 0.00 0.00 49 1012.0
20260509171512 21 218 4.8 8.0 0.00 0.00 0.00 51 1012.0
20260509171008 20 233 4.8 4.8 0.00 0.00 0.00 51 1012.1
20260509170504 21 222 4.8 8.0 0.00 0.00 0.00 51 1012.1
20260509165959 21 202 1.6 1.6 0.00 0.00 0.00 49 1012.1
20260509165458 21 323 3.2 3.2 0.00 0.00 0.00 50 1012.2
20260509164955 20 247 6.4 11.3 0.00 0.00 0.00 53 1012.0
20260509164450 21 161 1.6 1.6 0.00 0.00 0.00 53 1011.9
20260509163946 21 234 4.8 8.0 0.00 0.00 0.00 51 1012.0
20260509163444 20 158 3.2 4.8 0.00 0.00 0.00 53 1012.1
20260509162943 19 287 4.8 4.8 0.00 0.00 0.00 55 1012.4
20260509162442 20 223 3.2 3.2 0.00 0.00 0.00 52 1012.2
20260509161938 20 9 3.2 4.8 0.00 0.00 0.00 53 1012.1
20260509161434 20 177 0.0 1.6 0.00 0.00 0.00 52 1012.1
20260509160930 21 137 3.2 3.2 0.00 0.00 0.00 50 1012.1
20260509160426 20 279 6.4 8.0 0.00 0.00 0.00 51 1012.1
20260509155921 20 256 3.2 4.8 0.00 0.00 0.00 51 1012.1
20260509155418 20 261 4.8 4.8 0.00 0.00 0.00 50 1012.1
20260509154914 20 227 1.6 3.2 0.00 0.00 0.00 54 1011.9
20260509154411 20 202 4.8 8.0 0.00 0.00 0.00 54 1012.3
20260509153907 20 175 1.6 1.6 0.00 0.00 0.00 55 1012.0
20260509153405 20 172 8.0 14.5 0.00 0.00 0.00 54 1012.2
20260509152902 20 259 3.2 3.2 0.00 0.00 0.00 53 1012.2
20260509152357 20 238 4.8 8.0 0.00 0.00 0.00 54 1012.2
20260509151855 20 190 3.2 4.8 0.00 0.00 0.00 52 1012.3
20260509151350 20 268 3.2 3.2 0.00 0.00 0.00 53 1012.2
20260509150849 20 167 1.6 1.6 0.00 0.00 0.00 55 1012.2
20260509150347 20 263 3.2 3.2 0.00 0.00 0.00 53 1012.3
20260509145844 20 230 1.6 3.2 0.00 0.00 0.00 54 1012.2
20260509145344 19 172 1.6 1.6 0.00 0.00 0.00 55 1012.0
20260509144841 18 279 1.6 3.2 0.00 0.00 0.00 56 1012.0
20260509144338 18 248 6.4 9.7 0.00 0.00 0.00 56 1012.2
20260509143835 18 249 3.2 3.2 0.00 0.00 0.00 56 1012.3
20260509143332 19 253 4.8 4.8 0.00 0.00 0.00 55 1012.2
20260509142828 19 259 1.6 3.2 0.00 0.00 0.00 56 1012.1
20260509142324 18 206 4.8 4.8 0.00 0.00 0.00 57 1012.0
20260509141820 18 202 8.0 9.7 0.00 0.00 0.00 59 1011.9
20260509141318 17 164 1.6 1.6 0.00 0.00 0.00 61 1012.1
20260509140814 17 188 1.6 3.2 0.00 0.00 0.00 62 1012.3
20260509140311 17 168 0.0 1.6 0.00 0.00 0.00 62 1012.2
20260509135809 17 190 0.0 1.6 0.00 0.00 0.00 62 1012.3
20260509135306 17 239 6.4 11.3 0.00 0.00 0.00 61 1012.1
20260509134803 17 213 3.2 3.2 0.00 0.00 0.00 61 1012.5
20260509134301 17 253 3.2 3.2 0.00 0.00 0.00 61 1012.5
20260509133757 17 215 4.8 8.0 0.00 0.00 0.00 62 1012.6
20260509133254 17 222 1.6 3.2 0.00 0.00 0.00 63 1012.5
20260509132753 16 229 8.0 9.7 0.00 0.00 0.00 64 1012.6
20260509132251 16 242 3.2 3.2 0.00 0.00 0.00 64 1012.7
20260509131747 16 235 0.0 0.0 0.00 0.00 0.00 65 1012.8
20260509131244 16 193 8.0 9.7 0.00 0.00 0.00 65 1012.8
20260509130740 16 172 4.8 4.8 0.00 0.00 0.00 65 1012.9
20260509130236 16 239 3.2 8.0 0.00 0.00 0.00 65 1013.0
20260509125733 16 194 4.8 8.0 0.00 0.00 0.00 65 1012.9
20260509125230 16 193 3.2 3.2 0.00 0.00 0.00 66 1012.9
20260509124726 16 254 4.8 4.8 0.00 0.00 0.00 66 1013.0
20260509124223 15 255 1.6 1.6 0.00 0.00 0.00 67 1013.0
20260509123721 15 177 1.6 1.6 0.00 0.00 0.00 68 1013.1
20260509123218 15 159 0.0 1.6 0.00 0.00 0.00 68 1013.1
20260509122713 15 120 0.0 0.0 0.00 0.00 0.00 69 1013.1
20260509122211 15 120 0.0 0.0 0.00 0.00 0.00 71 1013.0
20260509121707 14 121 0.0 0.0 0.00 0.00 0.00 73 1013.0
20260509121205 14 121 0.0 0.0 0.00 0.00 0.00 70 1013.2
20260509120703 13 121 0.0 0.0 0.00 0.00 0.00 72 1013.0
20260509120201 13 121 0.0 0.0 0.00 0.00 0.00 73 1013.1
20260509115658 13 121 0.0 0.0 0.00 0.00 0.00 73 1013.1
20260509115155 12 121 0.0 0.0 0.00 0.00 0.00 74 1013.1
20260509114653 12 121 0.0 0.0 0.00 0.00 0.00 74 1013.0
20260509114152 12 120 0.0 0.0 0.00 0.00 0.00 72 1013.1
20260509113650 11 120 0.0 0.0 0.00 0.00 0.00 74 1013.0
20260509113147 12 76 0.0 0.0 0.00 0.00 0.00 77 1013.2
20260509112644 11 21 0.0 0.0 0.00 0.00 0.00 75 1013.2
20260509112141 11 167 0.0 0.0 0.00 0.00 0.00 72 1013.2
20260509111638 11 129 0.0 0.0 0.00 0.00 0.00 72 1013.0
20260509111134 11 129 0.0 0.0 0.00 0.00 0.00 73 1013.0
20260509110632 11 129 0.0 0.0 0.00 0.00 0.00 69 1013.2
20260509110129 11 129 0.0 0.0 0.00 0.00 0.00 69 1013.0
20260509105627 11 129 0.0 0.0 0.00 0.00 0.00 69 1012.9
20260509105124 11 126 0.0 0.0 0.00 0.00 0.00 70 1012.8
20260509104621 11 103 0.0 0.0 0.00 0.00 0.00 70 1013.0
20260509104117 11 106 0.0 0.0 0.00 0.00 0.00 71 1012.9
20260509103616 10 140 0.0 0.0 0.00 0.00 0.00 71 1012.9
20260509103113 10 168 0.0 0.0 0.00 0.00 0.00 71 1013.2
20260509102610 10 167 0.0 0.0 0.00 0.00 0.00 72 1013.2
20260509102107 10 338 0.0 0.0 0.00 0.00 0.00 71 1012.8
20260509101603 10 160 0.0 0.0 0.00 0.00 0.00 70 1012.9
20260509101100 10 161 0.0 0.0 0.00 0.00 0.00 70 1012.9
20260509100557 10 137 0.0 0.0 0.00 0.00 0.00 70 1013.0
20260509100055 10 120 0.0 0.0 0.00 0.00 0.00 70 1013.0
20260509095551 10 120 0.0 0.0 0.00 0.00 0.00 71 1012.9
20260509095049 10 119 0.0 0.0 0.00 0.00 0.00 69 1013.0
20260509094545 10 119 0.0 0.0 0.00 0.00 0.00 69 1013.1
20260509094043 10 120 0.0 0.0 0.00 0.00 0.00 69 1012.8
20260509093541 10 120 0.0 0.0 0.00 0.00 0.00 69 1012.8
20260509093038 10 116 0.0 0.0 0.00 0.00 0.00 69 1013.1
20260509092535 10 123 0.0 0.0 0.00 0.00 0.00 68 1013.1
20260509092034 10 139 0.0 0.0 0.00 0.00 0.00 70 1013.0
20260509091531 10 139 0.0 0.0 0.00 0.00 0.00 70 1013.1
20260509091028 10 53 0.0 0.0 0.00 0.00 0.00 70 1013.1
20260509090525 10 157 0.0 0.0 0.00 0.00 0.00 68 1013.1
20260509090023 10 154 0.0 0.0 0.00 0.00 0.00 68 1013.1
20260509085519 10 129 0.0 0.0 0.00 0.00 0.00 68 1013.1
20260509085015 10 125 0.0 0.0 0.00 0.00 0.00 68 1013.2
20260509084513 10 125 0.0 0.0 0.00 0.00 0.00 68 1013.2
20260509084010 10 171 0.0 0.0 0.00 0.00 0.00 67 1013.2
20260509083507 10 162 0.0 0.0 0.00 0.00 0.00 65 1013.3
20260509083003 10 161 0.0 0.0 0.00 0.00 0.00 65 1013.3
20260509082501 10 159 0.0 0.0 0.00 0.00 0.00 65 1013.4
20260509081958 11 159 0.0 0.0 0.00 0.00 0.00 64 1013.2
20260509081455 11 159 0.0 0.0 0.00 0.00 0.00 64 1013.2
20260509080952 11 158 0.0 0.0 0.00 0.00 0.00 63 1013.4
20260509080450 11 159 0.0 0.0 0.00 0.00 0.00 64 1013.5
20260509075948 10 175 0.0 0.0 0.00 0.00 0.00 65 1013.2
20260509075445 10 163 0.0 0.0 0.00 0.00 0.00 65 1013.7
20260509074943 10 165 0.0 0.0 0.00 0.00 0.00 65 1013.7
20260509074440 10 140 0.0 0.0 0.00 0.00 0.00 65 1013.4
20260509073936 10 126 0.0 0.0 0.00 0.00 0.00 64 1013.4
20260509073433 10 157 0.0 0.0 0.00 0.00 0.00 64 1013.5
20260509072929 10 169 0.0 0.0 0.00 0.00 0.00 64 1013.9
20260509072426 10 175 0.0 0.0 0.00 0.00 0.00 63 1014.0
20260509071922 10 155 0.0 0.0 0.00 0.00 0.00 63 1013.8
20260509071419 10 140 0.0 0.0 0.00 0.00 0.00 62 1014.0
20260509070917 10 183 0.0 0.0 0.00 0.00 0.00 63 1014.0
20260509070414 10 182 0.0 0.0 0.00 0.00 0.00 64 1013.8
20260509065909 10 183 0.0 0.0 0.00 0.00 0.00 63 1013.9
20260509065406 10 186 0.0 0.0 0.00 0.00 0.00 61 1014.1
20260509064902 10 183 0.0 0.0 0.00 0.00 0.00 61 1014.1